Temperature
14 14 14 14 14 14 14 14 15 15 14 13 12 12 12 13 13 12 13 13 13 13 13 13 13 13 13 13 14 14 14 14 14 14 14 14 14 14
15 14 14 14 14 14 14 14 14 14 14 13 12 12 12 12 13 12 12 13 13 13 13 13 13 13 13 13 13 13 13 14 14 14 14 14 14 14
14 14 14 14 14 14 14 14 14 14 13 12 12 12 12 12 12 12 12 12 12 12 13 13 13 13 13 13 13 13 13 13 13 13 13 13 13 14
14 14 14 14 14 13 13 13 13 13 13 13 12 12 12 12 12 12 12 12 12 12 12 12 12 12 12 12 12 12 12 12 13 13 13 13 13 13
14 14 13 13 13 13 13 13 13 13 13 12 12 12 12 12 12 12 12 12 11 11 12 12 12 12 12 12 12 12 12 12 12 12 12 12 12 12
14 14 13 13 13 13 13 13 13 12 12 12 12 12 12 12 11 11 11 11 11 11 11 11 11 11 11 11 11 11 11 11 11 11 11 11 11 11
14 14 14 13 13 13 13 13 12 12 12 12 12 12 11 11 11 11 11 11 11 11 11 10 10 10 10 10 11 11 11 11 11 11 11 11 11 11
13 13 13 13 13 13 13 13 13 12 12 12 11 11 11 11 11 11 11 11 10 10 10 10 10 10 10 10 10 10 10 10 10 10 10 10 10 10
13 13 13 13 13 13 13 13 13 12 12 12 11 11 11 11 11 11 10 10 10 10 10 10 10 10 10 10 10 10 10 10 10 10 10 10 10 10
13 13 13 13 13 13 12 12 12 12 12 12 11 11 11 11 11 11 10 10 10 10 10 10 10 9 9 9 9 9 9 9 9 9 9 9 9 9
13 13 13 13 13 13 12 12 12 12 12 12 12 11 11 11 11 10 10 10 10 9 9 9 9 9 9 9 9 9 9 9 9 9 8 8 8 8
13 13 13 13 13 12 12 12 12 11 11 11 11 11 11 10 10 10 10 9 9 9 9 8 8 8 8 8 8 8 8 8 8 8 8 8 7 7
13 13 13 13 13 12 12 12 11 11 11 10 10 10 10 10 10 9 9 9 9 8 8 8 8 7 7 7 8 7 7 7 7 7 7 7 7 6
13 13 13 13 12 12 12 12 11 11 10 10 10 10 10 9 9 9 9 9 8 8 8 7 7 7 6 7 7 7 7 6 6 6 6 6 6 6
12 12 12 12 12 12 11 11 11 10 10 10 10 9 9 9 9 9 9 8 8 8 8 7 7 6 6 6 6 6 6 6 6 5 5 5 5 5
12 12 12 12 11 11 11 11 10 10 10 9 9 9 9 9 8 8 8 8 7 7 7 7 7 6 6 5 5 5 5 5 5 5 5 5 4 4
12 12 11 11 11 11 11 10 10 10 10 9 9 9 8 8 8 8 8 7 7 7 6 6 6 6 5 5 5 5 5 5 4 4 4 4 4 4
12 11 11 11 11 11 10 10 10 9 9 9 9 8 8 8 7 7 7 7 6 6 6 6 5 5 5 5 5 4 4 4 4 3 3 3 3 4
11 11 11 11 11 10 10 10 9 9 9 9 8 8 8 7 7 7 6 6 6 6 5 5 5 4 4 4 5 4 4 3 3 3 3 3 3 3
11 11 11 11 10 10 10 9 9 9 8 8 8 8 7 7 6 6 6 6 5 5 5 5 4 4 4 3 3 3 3 3 2 2 2 2 2 2
11 11 11 10 10 9 9 9 9 8 8 7 7 7 7 6 6 6 5 5 5 5 4 4 4 4 3 3 2 3 3 3 2 2 2 2 1 1
11 11 10 10 10 9 9 8 8 8 7 7 7 7 6 6 6 5 5 5 4 4 4 4 3 3 2 2 2 2 2 2 2 2 1 1 1 1
10 10 10 10 9 9 8 8 8 7 7 7 6 6 6 5 5 5 5 4 4 4 3 3 3 2 2 2 2 2 2 2 1 1 1 1 1 1
Wind_Speed
5 5 4 4 3 3 2 2 1 2 3 4 4 6 6 8 9 9 10 14 15 15 15 14 15 15 15 15 15 14 14 14 14 13 13 12 11 9
5 5 5 4 4 3 3 3 3 2 3 3 3 4 6 6 8 8 9 10 14 14 13 13 13 13 13 14 14 14 14 14 14 14 13 13 13 12
6 6 6 5 4 4 3 3 3 3 3 3 3 4 4 5 6 6 6 7 9 13 12 12 12 12 12 13 13 13 13 13 13 13 13 13 13 12
6 6 6 5 5 4 3 4 4 3 3 3 3 3 4 5 5 5 5 6 6 10 10 11 11 11 11 11 11 11 12 12 12 13 13 13 13 13
5 5 5 5 4 4 3 4 3 3 2 2 3 2 2 3 3 4 5 5 5 5 6 7 8 9 9 9 10 10 11 11 11 12 12 13 13 13
5 5 5 4 4 4 3 3 3 3 2 2 2 2 2 3 3 3 3 3 3 4 5 4 4 4 5 7 8 9 9 10 10 11 11 12 12 12
4 4 5 6 8 5 3 3 2 2 1 2 2 2 2 3 3 3 3 3 3 3 4 4 4 4 3 3 5 7 8 8 9 10 11 11 12 11
3 3 4 4 5 5 6 7 6 3 2 2 2 2 3 3 3 4 4 4 3 3 5 4 4 4 4 4 5 6 7 8 9 10 11 11 12 12
3 3 3 2 2 3 4 3 3 4 4 3 3 3 3 4 4 4 4 5 5 4 5 4 4 4 4 4 2 5 7 8 10 11 12 12 13 14
2 2 3 2 1 0 1 1 2 2 2 2 2 3 4 4 4 5 5 5 4 3 4 5 5 6 6 5 2 4 7 8 10 11 12 13 14 15
3 2 2 2 3 2 1 1 0 1 2 2 3 3 4 4 5 4 5 5 5 4 3 5 6 7 7 5 4 5 8 9 10 12 12 12 13 15
3 3 2 0 2 1 2 2 1 1 1 1 2 2 3 2 3 4 5 5 6 5 3 5 6 6 6 5 6 8 9 9 11 12 11 11 12 13
4 3 3 4 2 2 3 2 2 3 3 2 2 2 2 3 3 4 4 4 6 6 5 5 6 7 7 8 8 8 9 11 11 11 10 10 11 11
4 3 3 6 5 4 3 1 2 4 3 3 3 3 3 3 4 5 5 6 6 8 8 7 6 7 9 10 9 8 9 10 11 10 11 12 11 12
3 2 2 5 5 4 4 4 4 3 3 4 4 4 4 5 5 5 5 6 8 8 9 9 8 7 8 9 10 10 11 10 9 9 10 10 11 11
4 4 5 4 4 3 4 4 4 4 4 5 5 5 5 4 4 4 5 5 6 7 7 9 9 8 8 10 10 11 11 9 9 10 10 11 12 13
6 5 4 4 4 4 4 4 4 4 5 5 5 5 5 5 5 5 5 6 7 8 7 6 8 9 9 10 10 11 11 11 11 11 11 12 12 12
6 5 5 5 5 5 5 5 5 5 5 5 5 6 6 6 6 6 6 6 7 8 8 8 8 8 9 8 8 11 11 11 12 12 12 13 13 13
6 6 6 5 5 5 5 5 6 5 5 5 6 6 6 6 7 7 7 7 8 9 9 8 8 9 11 13 9 7 10 12 12 12 12 13 14 14
7 7 6 6 6 6 6 6 6 5 5 6 6 6 6 7 7 8 8 8 9 9 9 9 8 8 10 13 14 13 11 11 12 13 13 14 14 15
7 7 7 6 6 6 6 6 6 6 6 6 6 7 7 7 7 8 8 9 9 10 10 10 9 10 11 11 12 13 12 12 13 13 15 14 15 15
7 7 6 6 6 5 5 5 6 6 6 7 7 7 7 7 8 9 9 9 9 10 11 10 10 9 9 11 14 16 16 15 14 16 17 17 13 14
6 6 6 5 5 5 5 6 7 6 6 6 6 7 7 7 8 8 9 9 9 10 11 11 10 9 10 12 13 14 17 17 14 13 13 15 18 22
Wind_Direction
76 79 76 76 73 61 52 18 6 108 88 58 49 42 42 47 24 41 49 48 47 48 49 49 48 48 47 46 45 44 42 40 38 35 32 29 26 28
68 73 71 79 69 63 50 35 15 30 81 69 55 47 36 44 37 43 54 62 54 48 48 49 49 50 48 45 43 41 39 37 34 32 30 27 23 18
88 83 77 69 74 67 59 56 46 53 96 88 70 56 46 38 35 35 39 42 55 51 48 49 48 48 48 46 43 40 38 35 32 28 25 22 18 14
85 85 85 81 73 64 60 62 59 56 82 94 81 54 42 35 28 24 30 35 44 57 49 47 45 44 45 44 41 39 36 32 29 25 21 17 13 11
84 81 81 83 80 75 66 68 67 64 65 90 75 49 36 31 24 20 32 27 30 55 50 49 45 42 43 42 38 36 32 28 25 21 17 13 10 7
90 80 73 73 70 73 71 69 66 71 62 64 67 56 39 20 6 6 12 18 11 22 22 21 38 54 54 47 38 33 28 23 18 13 9 5 2 359
100 88 73 61 46 42 44 58 61 58 58 43 42 31 29 10 2 350 350 347 9 5 352 352 356 3 16 47 39 25 15 10 6 1 358 354 351 347
122 110 105 100 92 79 55 41 26 26 28 29 20 10 10 7 353 336 340 338 346 4 336 338 341 341 344 3 30 10 355 352 351 348 345 342 339 336
143 133 115 109 134 119 120 125 73 37 3 349 358 359 349 351 338 336 341 337 333 342 329 321 333 329 329 340 0 337 337 335 333 334 334 333 331 328
162 157 151 138 105 104 133 103 61 44 19 344 353 353 351 343 330 325 322 313 304 318 323 311 321 319 317 307 280 300 306 308 313 317 319 320 321 318
168 162 168 152 99 292 217 173 146 90 81 52 18 9 12 356 330 315 318 313 314 318 331 312 314 314 304 295 291 277 279 284 295 301 304 307 313 313
177 169 115 149 116 239 225 232 254 283 277 212 233 245 275 287 291 304 313 311 313 313 337 316 310 316 306 297 309 308 300 292 289 288 289 294 304 308
192 191 171 162 178 208 263 268 297 301 284 283 285 289 292 303 306 300 304 300 300 300 322 313 306 307 301 302 305 305 309 312 309 303 292 288 292 295
209 206 169 157 183 205 222 246 278 277 275 278 281 286 292 296 302 302 295 288 286 293 305 304 298 301 300 300 304 308 309 308 307 307 310 309 294 283
211 109 129 166 187 196 207 227 236 250 262 269 278 284 289 293 296 295 290 287 285 285 291 291 291 293 292 294 299 305 307 307 305 309 310 309 306 305
209 176 173 187 213 233 214 217 235 248 257 265 274 281 284 283 281 284 285 288 287 287 286 285 285 287 285 290 293 298 302 304 308 308 306 304 303 300
194 204 212 213 219 226 233 236 239 241 247 258 268 275 278 278 278 279 281 284 287 293 297 297 288 282 280 285 289 293 298 301 303 307 306 302 300 300
194 215 221 226 233 237 239 240 241 246 253 258 263 268 273 277 280 280 278 279 285 290 295 298 300 296 288 278 263 286 295 300 303 303 300 299 299 300
208 225 230 232 235 238 242 246 250 251 253 255 259 265 271 275 278 280 280 281 283 288 292 296 297 297 298 299 295 263 291 298 300 299 298 297 297 299
222 229 233 236 237 240 244 248 253 257 257 259 262 266 269 274 277 279 281 284 286 289 290 290 291 292 291 294 297 297 279 284 294 296 298 298 295 295
220 229 234 237 239 240 244 248 252 257 260 261 264 267 270 272 275 278 281 283 283 286 289 291 294 287 285 288 288 291 295 285 281 286 295 298 300 300
224 228 233 236 237 239 242 246 252 255 259 260 264 267 269 271 274 278 281 284 285 287 291 294 299 295 288 286 289 294 298 300 292 279 272 272 286 293
229 231 232 232 235 239 242 245 250 257 258 262 265 268 269 271 273 276 279 282 286 289 292 295 296 293 289 287 290 294 298 303 303 302 294 285 274 274
Height
1579 1578 1578 1578 1578 1579 1579 1579 1580 1579 1579 1578 1577 1575 1574 1572 1570 1569 1567 1565 1563 1562 1560 1559 1557 1556 1555 1554 1553 1552 1551 1550 1549 1548 1547 1545 1543 1542
1579 1579 1579 1579 1579 1579 1579 1579 1579 1580 1579 1578 1577 1576 1574 1573 1571 1570 1568 1566 1564 1563 1562 1560 1559 1557 1556 1555 1554 1552 1551 1550 1549 1548 1547 1546 1544 1543
1582 1581 1580 1580 1580 1580 1580 1580 1580 1580 1580 1579 1578 1577 1575 1574 1572 1571 1570 1568 1566 1564 1562 1561 1559 1558 1556 1555 1554 1552 1551 1550 1548 1547 1546 1545 1544 1542
1583 1583 1582 1581 1581 1581 1581 1581 1580 1580 1580 1579 1579 1577 1576 1574 1573 1571 1570 1568 1567 1564 1563 1561 1559 1558 1556 1555 1553 1552 1550 1549 1548 1546 1545 1544 1542 1541
1584 1584 1584 1583 1583 1582 1582 1582 1581 1581 1580 1580 1579 1577 1576 1574 1573 1572 1570 1568 1567 1565 1563 1561 1559 1557 1556 1554 1552 1551 1549 1548 1546 1545 1543 1542 1540 1539
1585 1584 1584 1584 1584 1583 1583 1582 1582 1581 1581 1580 1579 1578 1576 1575 1573 1572 1570 1568 1566 1565 1563 1561 1559 1557 1555 1553 1552 1550 1548 1547 1545 1543 1541 1540 1538 1536
1586 1585 1585 1584 1584 1583 1583 1583 1582 1582 1581 1581 1579 1578 1577 1575 1573 1571 1570 1568 1566 1564 1562 1561 1559 1557 1555 1553 1551 1549 1547 1545 1543 1541 1539 1537 1535 1533
1586 1586 1585 1585 1584 1584 1583 1582 1582 1582 1581 1580 1579 1578 1577 1575 1573 1571 1569 1568 1566 1564 1562 1560 1558 1556 1554 1552 1550 1547 1545 1543 1541 1539 1537 1535 1532 1530
1586 1586 1585 1585 1584 1584 1583 1582 1582 1581 1580 1580 1579 1578 1576 1575 1573 1571 1569 1567 1565 1563 1560 1559 1557 1555 1553 1550 1548 1545 1543 1541 1539 1536 1533 1531 1529 1526
1585 1585 1585 1585 1584 1584 1583 1583 1582 1581 1580 1579 1578 1577 1575 1573 1571 1570 1568 1566 1563 1561 1559 1557 1555 1553 1551 1548 1545 1543 1540 1538 1535 1532 1530 1527 1524 1522
1584 1584 1584 1584 1583 1583 1583 1582 1581 1580 1579 1577 1576 1575 1574 1572 1570 1568 1566 1565 1563 1560 1557 1555 1553 1550 1548 1546 1543 1540 1537 1534 1531 1528 1525 1523 1520 1517
1583 1583 1582 1583 1582 1582 1582 1581 1580 1579 1578 1576 1575 1573 1572 1570 1568 1567 1565 1563 1561 1559 1556 1553 1551 1548 1545 1543 1540 1537 1534 1531 1527 1524 1521 1518 1515 1512
1581 1581 1581 1581 1580 1580 1580 1579 1578 1578 1576 1575 1574 1572 1570 1569 1567 1565 1563 1561 1559 1557 1554 1550 1548 1546 1544 1540 1537 1534 1531 1527 1524 1520 1517 1513 1510 1507
1579 1579 1579 1578 1578 1578 1577 1576 1576 1575 1574 1573 1571 1570 1568 1566 1564 1562 1560 1558 1556 1553 1550 1548 1545 1542 1539 1536 1533 1530 1527 1524 1520 1516 1513 1509 1506 1503
1576 1576 1576 1576 1575 1575 1574 1574 1573 1572 1571 1570 1568 1567 1565 1563 1561 1559 1557 1554 1552 1550 1547 1544 1542 1538 1536 1533 1529 1526 1522 1519 1516 1512 1508 1505 1501 1498
1572 1572 1573 1572 1572 1571 1571 1570 1569 1568 1567 1566 1565 1564 1562 1560 1557 1555 1553 1551 1548 1546 1544 1541 1538 1535 1531 1528 1525 1521 1519 1515 1511 1507 1503 1500 1496 1493
1569 1569 1569 1569 1569 1568 1567 1567 1566 1565 1564 1562 1561 1560 1558 1556 1554 1552 1550 1547 1545 1542 1540 1537 1534 1531 1527 1525 1521 1517 1514 1510 1507 1503 1498 1494 1491 1488
1566 1565 1565 1565 1565 1564 1564 1563 1562 1561 1559 1558 1557 1555 1554 1552 1550 1548 1546 1544 1541 1539 1536 1533 1530 1526 1523 1520 1518 1513 1509 1505 1502 1498 1494 1488 1484 1481
1561 1561 1561 1561 1561 1560 1560 1559 1558 1557 1555 1554 1552 1551 1549 1548 1546 1544 1541 1539 1537 1534 1532 1529 1526 1522 1518 1513 1511 1509 1504 1500 1496 1492 1488 1484 1478 1473
1557 1557 1557 1557 1556 1556 1555 1554 1553 1552 1551 1549 1548 1546 1544 1543 1541 1539 1537 1534 1532 1529 1526 1524 1521 1518 1514 1509 1504 1502 1499 1495 1491 1486 1482 1477 1472 1467
1552 1553 1553 1552 1552 1551 1550 1549 1548 1547 1546 1544 1543 1541 1539 1537 1535 1533 1531 1529 1526 1523 1520 1518 1515 1512 1508 1504 1499 1495 1493 1490 1486 1481 1476 1471 1465 1460
1548 1548 1548 1547 1547 1546 1545 1544 1543 1542 1541 1539 1538 1536 1534 1532 1530 1528 1525 1523 1520 1518 1515 1512 1509 1506 1502 1498 1493 1489 1485 1482 1479 1475 1470 1466 1461 1454
1543 1543 1543 1542 1542 1541 1540 1539 1538 1537 1535 1534 1532 1530 1528 1526 1524 1522 1520 1517 1514 1511 1509 1506 1503 1500 1496 1492 1488 1483 1479 1475 1471 1466 1463 1459 1455 1450